Find Starlink 32367

NORAD ID: 60919 Int'l Des: 2024-154 Owner: SPXS Country: US Constellation: starlink operational
LEOCIRCULAR

現在のビュー

3D地球を読み込み中...

About Starlink 32367

Starlink 32367 (NORAD 60919) is a starlink constellation satellite (v2 mini) launched Aug 31, 2024 by SPXS of US. It operates in LEO, CIRCULAR orbit with a mass of 730.00 kg.

Starlink 32367について

説明を読み込み中...

次回通過

Passes for default location (London). Set your location on the main map for personalized predictions.

高度履歴

Loading altitude history...

軌道要素

1 60919U 24154S 26170.28056278 -.00003730 00000-0 -11374-3 0 9999
2 60919 53.1599 171.6289 0003683 29.6910 330.4299 15.30212471101895
Epoch: Jun 19, 2026 • Age: 18 hours

現在のステータス

高度 480.4 km
速度 7.63 km/s
衛星直下点 50.48°N, 8.82°E
打ち上げ日 Aug 31, 2024
運用期間 1.7 years
タイプ internet

技術仕様

分類 Payload
質量 730.00 kg
乾燥質量 700.00 kg
総質量 730.00 kg
長さ 0.30 m
直径 4.10 m
スパン 29.00 m
形状 Box + pan
製造者 SPXS
バスタイプ Starlink V2M
フェーズステータス In Orbit
所有者/国 SPXS/US

Most Searched